Auburn, IN

4:56 AM EDT on September 25, 2017 (GMT -0400)
Auburn

Weather History for KGWB - February, 2014

Change the Weather History Date:

Saturday, February 15, 2014

  Actual Average (KFWA) Record (KFWA)
Temperature  
Mean Temperature 18 °F -  
Max Temperature 26 °F 34 °F 69 °F (1954)
Min Temperature 10 °F 20 °F -12 °F (1905)
Degree Days  
Heating Degree Days 47    
Moisture  
Dew Point 11 °F    
Average Humidity 73    
Maximum Humidity 92    
Minimum Humidity 55    
Precipitation  
Precipitation 0.00 in - - ()
Sea Level Pressure  
Sea Level Pressure 29.99 in    
Wind  
Wind Speed 5 mph (West)    
Max Wind Speed 10 mph    
Max Gust Speed 18 mph    
Visibility 10 miles    
Events Snow    
Averages and records for this station are not official NWS values.
T = Trace of Precipitation, MM = Missing Value Source: NWS Daily Summary

Daily Weather History Graph

Daily Weather History Graph

Search for Another Location

Airport or City:

Trip Planner

Search our weather history database for the weather conditions in past years. The results will help you decide how hot, cold, wet, or windy it might be!

Date:

Astronomy

Feb. 15, 2014 Rise Set
Actual Time 7:35 AM EST 6:14 PM EST
Civil Twilight 7:06 AM EST 6:42 PM EST
Nautical Twilight 6:34 AM EST 7:14 PM EST
Astronomical Twilight 6:02 AM EST 7:47 PM EST
Moon 7:14 PM EST (2/15) 7:32 AM EST (2/15)
Length of Visible Light 11h 35m
Length of Day
10h 39m
Full, 100% of the Moon is Illuminated
Feb 15
Full
Feb 22
Last Quarter
Mar 1
New
Mar 8
First Quarter
Mar 16
Full

Hourly Weather History & Observations

Time (EST) Temp. Windchill Dew Point Humidity Pressure Visibility Wind Dir Wind Speed Gust Speed Precip Events Conditions
12:15 AM 19.4 °F 9.5 °F 14.0 °F 80% 29.82 in 10.0 mi NW 8.1 mph - N/A   Clear
12:35 AM 19.4 °F 12.8 °F 14.0 °F 80% 29.82 in 10.0 mi NW 4.6 mph - N/A   Clear
12:55 AM 19.4 °F 10.4 °F 14.0 °F 80% 29.82 in 10.0 mi NW 6.9 mph - N/A   Clear
1:15 AM 19.4 °F 10.4 °F 14.0 °F 80% 29.83 in 10.0 mi WNW 6.9 mph - N/A   Clear
1:35 AM 17.6 °F 8.2 °F 14.0 °F 86% 29.83 in 10.0 mi NW 6.9 mph - N/A   Clear
1:55 AM 17.6 °F 9.3 °F 14.0 °F 86% 29.84 in 10.0 mi WNW 5.8 mph - N/A   Clear
2:15 AM 17.6 °F 8.2 °F 14.0 °F 86% 29.84 in 10.0 mi NW 6.9 mph - N/A   Clear
2:35 AM 17.6 °F 7.3 °F 12.2 °F 79% 29.85 in 10.0 mi NW 8.1 mph - N/A   Clear
2:55 AM 15.8 °F 7.2 °F 12.2 °F 86% 29.85 in 10.0 mi NW 5.8 mph - N/A   Clear
3:15 AM 15.8 °F 8.6 °F 10.4 °F 79% 29.86 in 10.0 mi NW 4.6 mph - N/A   Clear
3:35 AM 14.0 °F 6.5 °F 10.4 °F 86% 29.87 in 10.0 mi NW 4.6 mph - N/A   Clear
3:55 AM 14.0 °F 6.5 °F 10.4 °F 86% 29.88 in 10.0 mi WNW 4.6 mph - N/A   Clear
4:15 AM 10.4 °F 2.2 °F 6.8 °F 85% 29.89 in 10.0 mi WNW 4.6 mph - N/A   Clear
4:35 AM 10.4 °F 2.2 °F 8.6 °F 92% 29.90 in 10.0 mi West 4.6 mph - N/A   Clear
4:55 AM 12.2 °F 4.3 °F 8.6 °F 85% 29.92 in 10.0 mi West 4.6 mph - N/A   Clear
5:15 AM 10.4 °F - 8.6 °F 92% 29.94 in 10.0 mi Calm Calm - N/A   Clear
5:35 AM 10.4 °F 0.8 °F 8.6 °F 92% 29.95 in 7.0 mi West 5.8 mph - N/A   Scattered Clouds
5:55 AM 10.4 °F 4.0 °F 8.6 °F 92% 29.96 in 7.0 mi West 3.5 mph - N/A Snow Light Snow
6:15 AM 12.2 °F - 8.6 °F 85% 29.97 in 7.0 mi Calm Calm - N/A Snow Light Snow
6:35 AM 12.2 °F 6.1 °F 8.6 °F 85% 29.97 in 7.0 mi West 3.5 mph - N/A Snow Light Snow
6:55 AM 12.2 °F - 8.6 °F 85% 29.98 in 7.0 mi Calm Calm - N/A   Overcast
7:15 AM 12.2 °F 6.1 °F 8.6 °F 85% 29.98 in 7.0 mi WNW 3.5 mph - N/A Snow Light Snow
7:35 AM 12.2 °F 2.9 °F 8.6 °F 85% 30.00 in 10.0 mi West 5.8 mph - N/A Snow Light Snow
7:55 AM 12.2 °F 4.3 °F 8.6 °F 85% 30.00 in 7.0 mi WNW 4.6 mph - N/A Snow Light Snow
8:15 AM 12.2 °F 6.1 °F 8.6 °F 85% 30.02 in 7.0 mi WNW 3.5 mph - N/A Snow Light Snow
8:35 AM 12.2 °F 4.3 °F 8.6 °F 85% 30.02 in 7.0 mi WNW 4.6 mph - N/A Snow Light Snow
8:55 AM 14.0 °F 5.1 °F 8.6 °F 79% 30.03 in 10.0 mi WNW 5.8 mph - N/A Snow Light Snow
9:15 AM 15.8 °F 7.2 °F 8.6 °F 73% 30.03 in 10.0 mi NW 5.8 mph - N/A   Clear
9:35 AM 17.6 °F 9.3 °F 8.6 °F 68% 30.03 in 10.0 mi NW 5.8 mph - N/A   Clear
9:55 AM 17.6 °F 7.3 °F 8.6 °F 68% 30.03 in 10.0 mi WNW 8.1 mph - N/A   Clear
10:15 AM 17.6 °F 9.3 °F 8.6 °F 68% 30.03 in 10.0 mi WNW 5.8 mph - N/A   Clear
10:35 AM 19.4 °F 10.4 °F 8.6 °F 63% 30.03 in 10.0 mi NW 6.9 mph - N/A   Clear
10:55 AM 19.4 °F 11.5 °F 8.6 °F 63% 30.04 in 10.0 mi NNW 5.8 mph - N/A   Clear
11:15 AM 19.4 °F 12.8 °F 8.6 °F 63% 30.05 in 10.0 mi WNW 4.6 mph - N/A   Clear
11:35 AM 21.2 °F 13.6 °F 10.4 °F 63% 30.06 in 10.0 mi WNW 5.8 mph - N/A   Clear
11:55 AM 21.2 °F 11.7 °F 10.4 °F 63% 30.05 in 10.0 mi West 8.1 mph - N/A   Clear
12:15 PM 23.0 °F 15.8 °F 10.4 °F 59% 30.05 in 10.0 mi West 5.8 mph - N/A   Clear
12:35 PM 23.0 °F 14.7 °F 10.4 °F 59% 30.05 in 10.0 mi West 6.9 mph - N/A   Clear
12:55 PM 23.0 °F 13.1 °F 12.2 °F 63% 30.06 in 10.0 mi West 9.2 mph - N/A   Clear
1:15 PM 23.0 °F 12.4 °F 12.2 °F 63% 30.05 in 5.0 mi WNW 10.4 mph - N/A Snow Light Snow
1:35 PM 24.8 °F 16.1 °F 12.2 °F 59% 30.05 in 10.0 mi West 8.1 mph - N/A   Scattered Clouds
1:55 PM 24.8 °F 15.3 °F 12.2 °F 59% 30.05 in 10.0 mi West 9.2 mph - N/A   Mostly Cloudy
2:15 PM 24.8 °F 16.1 °F 12.2 °F 59% 30.04 in 10.0 mi West 8.1 mph - N/A   Scattered Clouds
2:35 PM 26.6 °F 18.2 °F 14.0 °F 59% 30.03 in 10.0 mi West 8.1 mph 18.4 mph N/A   Scattered Clouds
2:55 PM 26.6 °F 20.0 °F 14.0 °F 59% 30.03 in 10.0 mi West 5.8 mph - N/A   Scattered Clouds
3:15 PM 26.6 °F 18.2 °F 12.2 °F 55% 30.03 in 10.0 mi West 8.1 mph - N/A   Clear
3:35 PM 26.6 °F 18.2 °F 12.2 °F 55% 30.02 in 10.0 mi West 8.1 mph - N/A   Clear
3:55 PM 26.6 °F 19.1 °F 14.0 °F 59% 30.03 in 10.0 mi West 6.9 mph - N/A   Clear
4:15 PM 26.6 °F 20.0 °F 14.0 °F 59% 30.03 in 10.0 mi SW 5.8 mph - N/A   Clear
4:35 PM 26.6 °F 20.0 °F 14.0 °F 59% 30.04 in 10.0 mi SW 5.8 mph - N/A   Clear
4:55 PM 24.8 °F 19.1 °F 14.0 °F 64% 30.04 in 10.0 mi SW 4.6 mph - N/A   Clear
5:15 PM 23.0 °F 13.9 °F 14.0 °F 68% 30.05 in 10.0 mi SW 8.1 mph - N/A   Clear
5:35 PM 23.0 °F 15.8 °F 14.0 °F 68% 30.04 in 7.0 mi SW 5.8 mph - N/A   Clear
5:55 PM 21.2 °F 13.6 °F 14.0 °F 74% 30.04 in 7.0 mi SW 5.8 mph - N/A   Clear
6:15 PM 21.2 °F 14.9 °F 14.0 °F 74% 30.04 in 10.0 mi SSW 4.6 mph - N/A   Clear
6:35 PM 21.2 °F 16.4 °F 12.2 °F 68% 30.04 in 10.0 mi SW 3.5 mph - N/A   Clear
6:55 PM 21.2 °F 16.4 °F 12.2 °F 68% 30.04 in 10.0 mi SW 3.5 mph - N/A   Clear
7:15 PM 19.4 °F 14.3 °F 12.2 °F 74% 30.05 in 10.0 mi SW 3.5 mph - N/A   Clear
7:35 PM 19.4 °F - 10.4 °F 68% 30.04 in 10.0 mi Calm Calm - N/A   Clear
7:55 PM 19.4 °F - 10.4 °F 68% 30.04 in 10.0 mi Calm Calm - N/A   Clear
8:15 PM 17.6 °F - 10.4 °F 73% 30.03 in 10.0 mi Calm Calm - N/A   Scattered Clouds
8:35 PM 17.6 °F 12.3 °F 10.4 °F 73% 30.03 in 10.0 mi SSW 3.5 mph - N/A   Scattered Clouds
8:55 PM 17.6 °F - 10.4 °F 73% 30.04 in 10.0 mi Calm Calm - N/A   Mostly Cloudy
9:15 PM 17.6 °F - 10.4 °F 73% 30.04 in 10.0 mi Calm Calm - N/A   Mostly Cloudy
9:35 PM 19.4 °F - 10.4 °F 68% 30.04 in 10.0 mi Calm Calm - N/A   Scattered Clouds
9:55 PM 17.6 °F - 10.4 °F 73% 30.04 in 10.0 mi Calm Calm - N/A   Mostly Cloudy
10:15 PM 17.6 °F - 10.4 °F 73% 30.04 in 10.0 mi Calm Calm - N/A   Overcast
10:35 PM 17.6 °F - 10.4 °F 73% 30.04 in 10.0 mi Calm Calm - N/A   Overcast
10:55 PM 15.8 °F - 10.4 °F 79% 30.03 in 10.0 mi Calm Calm - N/A   Overcast
11:15 PM 15.8 °F - 10.4 °F 79% 30.03 in 10.0 mi Calm Calm - N/A   Mostly Cloudy
11:35 PM 15.8 °F - 10.4 °F 79% 30.02 in 10.0 mi Calm Calm - N/A   Overcast
11:55 PM 15.8 °F - 8.6 °F 73% 30.01 in 10.0 mi Calm Calm - N/A   Overcast